Wind_Speed
28 28 29 29 27 26 27 29 30 31 32 31 30 28 29 30 30 31 31 31 32 32 33 34 34 33 34 33 33 34 34 35 35 35 36 36 37 37 36 36 37 36 35 34
27 27 28 29 28 26 26 27 28 28 29 27 26 27 28 30 30 31 31 32 33 34 36 36 37 37 38 38 38 38 38 38 38 38 38 39 39 38 37 37 37 36 35 34
21 22 25 25 25 25 25 25 25 25 25 26 27 28 28 28 28 28 30 31 33 35 36 37 38 39 39 39 39 40 41 41 41 41 41 41 40 39 38 38 37 36 34 33
16 17 18 19 20 21 22 23 24 24 24 24 25 26 26 26 26 28 31 32 34 34 35 35 36 36 37 37 38 39 40 41 42 43 43 42 42 40 39 38 37 36 34 33
14 14 14 14 15 16 17 19 21 22 24 25 25 24 24 25 26 28 29 30 30 30 30 31 31 31 32 33 34 36 38 39 40 40 40 40 40 39 38 38 37 36 36 34
13 14 14 14 14 14 13 15 17 18 20 21 21 22 22 23 23 24 25 25 26 26 27 28 28 28 29 29 29 30 31 33 33 34 34 34 34 35 35 35 35 36 36 36
12 13 13 14 14 14 13 14 14 17 18 19 20 20 21 21 21 20 20 21 22 23 24 25 26 26 25 24 23 22 23 24 25 25 26 27 28 29 30 31 32 33 34 35
14 13 11 11 11 12 12 13 13 14 16 18 19 20 20 20 19 18 17 18 20 21 22 23 23 22 21 20 19 18 17 17 18 19 20 22 24 26 27 28 28 29 30 31
14 12 10 8 8 9 10 11 13 14 15 17 18 19 19 19 18 18 19 20 20 21 20 19 19 18 18 17 18 18 17 16 16 17 19 21 23 23 25 26 26 27 28 28
16 14 11 8 7 7 8 11 13 14 15 16 17 18 18 19 20 21 21 20 19 18 17 16 15 15 15 16 16 17 17 17 17 18 20 22 23 23 24 25 26 26 27 27
17 16 14 12 10 8 8 10 11 13 13 14 15 16 17 19 19 19 19 18 17 16 16 15 14 14 14 15 16 18 20 21 22 22 22 24 25 26 27 27 28 28 28 28
15 15 15 13 12 10 9 8 8 9 10 11 12 12 13 14 14 15 15 15 15 15 15 15 15 15 16 17 18 20 22 23 24 26 27 28 29 31 32 33 34 34 33 33
12 12 12 12 11 10 9 8 8 9 9 9 9 9 9 10 10 11 11 12 12 13 14 15 16 17 18 19 20 21 22 24 25 26 28 30 32 35 36 37 38 38 38 37
11 11 10 9 9 9 9 9 9 10 11 12 12 11 10 9 8 8 9 9 10 11 12 13 15 16 17 18 20 21 22 23 24 26 28 30 32 34 36 37 37 37 38 39
13 12 11 10 9 9 9 9 9 9 10 11 11 12 12 11 10 10 9 9 10 10 11 12 13 14 16 17 19 20 22 23 25 26 28 29 30 32 33 34 35 36 37 38
15 15 15 14 12 11 9 9 10 10 10 11 11 11 11 11 11 10 10 10 11 11 12 13 14 16 17 18 19 20 21 23 24 26 28 29 30 31 32 33 35 36 37 38
18 18 18 18 17 16 13 12 11 11 12 13 13 13 13 12 12 12 12 13 13 13 14 14 15 16 17 18 19 20 21 23 25 26 28 29 30 31 32 33 34 35 37 39
21 21 21 21 21 20 18 16 15 13 13 13 14 15 15 15 14 15 15 15 16 16 16 17 18 19 19 21 22 22 23 24 25 27 28 30 30 31 31 32 33 34 36 37
23 22 22 23 23 22 21 19 18 17 16 16 16 15 15 15 16 16 17 17 17 18 19 20 21 22 23 25 26 26 25 25 26 27 28 30 31 32 32 33 34 35 36 37
26 25 24 24 24 23 21 21 20 20 19 19 19 18 17 17 17 18 19 20 20 20 21 21 23 24 26 28 29 28 27 27 28 29 31 32 34 34 36 37 38 39 40 40
30 28 26 26 25 23 22 21 21 21 21 21 20 20 20 19 19 20 20 21 22 22 22 23 24 26 28 30 30 30 29 29 31 33 34 36 36 37 38 39 40 39 39 39
32 30 28 27 25 23 22 21 21 21 21 22 21 21 21 21 21 22 22 22 23 22 23 24 25 27 30 31 31 31 31 32 33 35 37 38 38 38 39 40 40 39 38 37
31 30 29 28 25 23 22 22 22 22 22 22 21 21 21 21 21 21 22 22 22 22 22 23 24 27 29 30 30 31 32 33 34 37 38 39 39 40 40 40 39 37 35 34
29 28 28 27 25 23 22 22 22 22 22 22 22 21 21 21 21 21 21 22 22 21 21 22 24 25 27 28 30 31 32 33 35 37 39 39 40 40 40 39 37 35 33 32
29 28 27 27 26 24 23 22 22 22 22 23 23 22 22 21 21 21 22 22 22 22 22 22 24 25 27 29 31 32 32 34 36 38 39 39 39 39 38 36 34 31 30 29
33 30 28 26 26 26 25 23 21 20 21 23 23 23 23 22 22 22 22 23 23 23 23 24 25 26 28 30 32 33 34 36 38 39 39 38 38 36 34 32 30 28 27 27
37 35 33 30 28 27 27 25 24 22 22 23 24 24 24 23 22 22 23 23 24 25 25 26 27 28 29 32 34 35 36 37 39 39 38 37 35 33 31 29 27 27 26 26
Wind_Direction
274 273 273 274 271 265 259 254 255 255 255 254 251 252 254 255 256 258 261 263 265 265 266 267 268 269 270 271 270 271 272 272 272 271 271 272 272 271 270 269 269 269 269 269
271 268 270 272 272 269 265 258 254 251 251 252 255 254 255 257 258 259 262 265 268 270 271 271 271 270 269 269 269 270 270 270 270 269 269 270 270 270 268 267 267 267 266 265
277 272 269 271 274 270 265 260 255 254 255 256 256 255 255 256 258 260 265 271 276 279 278 276 274 272 270 268 268 267 266 266 266 266 266 266 266 266 265 263 264 264 263 263
289 281 277 275 273 270 267 264 257 252 249 248 247 248 249 253 259 266 273 277 279 279 277 275 273 271 269 268 266 265 264 263 262 262 262 262 262 263 262 261 260 260 260 260
291 283 279 277 276 276 273 269 264 263 261 261 263 264 263 266 270 272 274 275 276 276 275 274 274 274 273 271 268 265 263 262 262 262 262 262 262 262 260 260 259 259 258 258
291 282 277 278 277 277 276 272 268 269 269 269 268 270 270 270 270 270 271 273 276 278 279 279 279 280 280 277 273 269 265 263 262 262 262 262 263 263 262 262 261 260 260 258
308 296 287 283 279 276 273 270 270 272 273 272 270 269 270 269 269 270 273 279 283 285 285 284 283 283 283 281 278 275 271 268 265 262 261 260 259 260 262 262 262 262 262 261
333 322 309 294 284 278 275 273 276 279 279 277 275 273 271 269 270 272 279 286 291 292 290 287 286 284 282 280 278 276 276 272 267 264 260 256 257 259 261 260 258 258 257 258
358 348 337 320 302 292 286 284 287 289 288 285 282 279 275 272 271 276 283 290 294 295 293 290 288 285 281 276 273 272 271 268 265 261 256 255 257 259 260 261 262 263 263 262
21 14 6 356 340 319 305 300 299 297 295 293 290 286 281 279 278 281 285 287 290 290 289 287 286 283 278 274 269 265 262 260 258 258 258 259 260 262 266 269 271 273 273 272
27 28 25 22 13 356 336 323 313 307 302 298 294 289 285 283 282 281 281 282 283 283 283 284 285 286 282 276 272 269 267 266 263 262 264 263 262 263 265 268 271 273 272 271
23 27 30 27 25 20 8 351 335 323 315 309 302 296 291 288 286 285 283 283 282 282 282 282 284 286 288 286 284 282 281 278 275 271 267 264 263 261 261 263 266 268 267 266
6 15 21 24 25 29 29 22 12 4 355 346 337 327 315 306 300 297 294 293 292 289 286 286 286 287 288 289 289 289 287 285 282 278 274 269 267 266 265 264 264 264 264 263
341 350 359 5 7 10 14 17 18 18 18 18 17 15 10 359 344 329 318 310 304 299 295 294 294 294 294 294 294 293 291 290 288 285 282 279 276 273 271 271 269 267 266 265
314 321 326 332 338 343 347 349 353 358 2 6 9 13 14 12 7 359 350 340 330 322 315 311 307 304 302 301 299 297 296 294 292 290 288 286 284 282 280 278 277 275 273 271
294 299 303 306 311 316 321 325 327 330 334 336 342 348 351 351 351 350 347 343 338 333 328 321 316 313 310 307 304 302 299 296 294 292 290 288 287 286 284 283 281 279 278 276
282 287 291 293 296 298 301 306 311 315 318 319 321 323 326 327 327 327 327 326 325 324 322 318 315 315 314 313 312 309 306 304 301 298 296 294 292 291 289 287 285 282 280 278
272 277 282 286 288 290 292 294 297 302 308 311 311 311 313 316 318 317 317 317 316 315 315 313 312 313 315 316 315 314 312 310 307 303 300 298 297 296 295 293 291 287 283 279
263 267 273 278 281 284 287 291 292 293 295 298 301 304 308 311 314 315 315 315 314 314 314 313 315 317 318 318 317 315 312 310 308 304 301 300 300 300 301 301 300 298 293 288
258 259 264 270 274 278 282 286 289 290 291 292 293 296 300 306 310 312 312 312 311 312 313 314 315 317 317 316 316 314 311 309 308 306 304 303 302 302 301 302 301 300 298 294
258 256 259 264 268 271 275 280 285 289 291 293 292 293 296 300 304 306 306 306 306 308 310 312 313 314 314 315 317 316 313 311 310 309 308 306 305 303 303 303 303 302 300 297
265 260 258 261 264 267 269 274 280 285 290 292 292 292 293 295 297 299 300 301 304 307 309 310 311 313 315 317 318 318 316 313 312 311 310 309 308 308 308 308 309 308 307 304
274 269 263 261 262 264 266 270 274 280 285 288 289 290 291 291 292 294 296 300 304 307 309 310 312 314 317 319 319 318 316 313 311 311 311 312 312 312 312 313 313 313 311 310
274 270 265 262 261 262 263 267 270 275 280 283 286 288 289 289 289 291 294 299 303 306 310 313 315 317 319 319 319 317 316 313 312 312 313 313 313 314 315 316 316 315 314 312
270 269 265 260 259 260 261 265 269 274 277 280 282 285 287 288 287 290 294 298 302 306 311 316 318 318 318 318 318 318 316 315 315 315 316 316 315 316 317 318 318 316 315 313
267 266 263 260 256 256 259 262 267 276 281 282 281 282 284 285 286 289 293 296 300 304 309 315 318 319 318 317 318 319 318 318 319 320 320 320 320 321 320 320 319 318 317 316
266 265 264 261 257 255 256 259 263 271 281 285 283 281 281 283 285 288 292 296 298 302 306 310 316 318 319 320 320 319 319 321 323 324 325 326 326 325 323 321 320 320 321 321
Height
5738 5739 5739 5738 5739 5740 5740 5741 5742 5744 5746 5748 5749 5751 5753 5754 5755 5757 5758 5759 5760 5761 5762 5762 5763 5763 5764 5765 5765 5766 5766 5766 5765 5765 5764 5764 5764 5763 5763 5764 5765 5765 5766 5766
5730 5730 5730 5730 5731 5732 5732 5733 5734 5735 5737 5739 5741 5743 5744 5746 5747 5748 5749 5750 5751 5752 5752 5752 5753 5753 5754 5754 5754 5754 5755 5755 5754 5754 5754 5753 5753 5753 5753 5754 5755 5755 5756 5757
5723 5723 5722 5723 5724 5724 5725 5725 5727 5729 5731 5732 5733 5735 5737 5738 5739 5740 5741 5741 5741 5741 5741 5741 5741 5741 5741 5741 5741 5741 5742 5742 5742 5742 5742 5742 5742 5743 5743 5744 5745 5746 5747 5748
5718 5718 5717 5719 5717 5717 5717 5718 5720 5721 5723 5724 5726 5727 5729 5730 5732 5733 5733 5732 5732 5731 5730 5730 5729 5729 5729 5729 5729 5728 5729 5729 5729 5729 5730 5730 5730 5731 5733 5734 5735 5736 5738 5739
5715 5713 5713 5713 5712 5712 5712 5713 5714 5715 5716 5718 5719 5720 5722 5723 5724 5724 5723 5723 5722 5722 5721 5720 5719 5719 5718 5717 5716 5716 5716 5716 5716 5717 5718 5718 5719 5720 5722 5723 5724 5726 5728 5729
5711 5710 5709 5710 5709 5708 5710 5709 5710 5710 5711 5712 5713 5715 5716 5716 5716 5715 5715 5715 5714 5713 5712 5711 5710 5709 5708 5707 5705 5705 5704 5705 5705 5706 5707 5708 5709 5710 5712 5713 5714 5716 5718 5719
5708 5706 5705 5705 5704 5705 5707 5707 5706 5706 5706 5707 5707 5709 5709 5709 5709 5708 5708 5707 5706 5705 5704 5703 5702 5701 5699 5698 5697 5696 5696 5696 5697 5698 5699 5700 5701 5702 5703 5704 5705 5706 5708 5709
5706 5704 5705 5702 5702 5702 5703 5702 5702 5702 5702 5702 5702 5702 5702 5702 5702 5702 5701 5701 5700 5699 5697 5696 5695 5693 5692 5691 5691 5691 5691 5691 5691 5692 5692 5693 5694 5695 5696 5697 5697 5698 5699 5700
5707 5706 5702 5700 5700 5700 5699 5699 5699 5699 5698 5697 5697 5696 5696 5696 5696 5695 5695 5694 5694 5693 5692 5690 5689 5688 5687 5687 5686 5686 5686 5686 5687 5687 5688 5688 5689 5689 5689 5690 5690 5690 5691 5692
5707 5704 5702 5700 5699 5698 5698 5697 5696 5695 5694 5693 5692 5692 5691 5691 5690 5690 5689 5689 5688 5688 5687 5686 5685 5684 5684 5683 5682 5682 5682 5682 5683 5683 5683 5684 5683 5683 5683 5683 5683 5684 5684 5684
5709 5706 5703 5701 5699 5697 5696 5695 5694 5692 5691 5690 5689 5688 5687 5686 5685 5685 5684 5684 5683 5683 5683 5682 5681 5681 5680 5680 5679 5679 5678 5678 5678 5678 5678 5678 5677 5677 5676 5676 5676 5677 5677 5677
5712 5708 5705 5703 5700 5697 5696 5694 5693 5691 5689 5687 5686 5685 5683 5682 5681 5680 5680 5679 5678 5678 5678 5678 5677 5676 5676 5675 5674 5674 5673 5672 5672 5671 5671 5671 5670 5670 5669 5668 5668 5668 5668 5669
5712 5709 5706 5704 5701 5698 5696 5694 5692 5690 5688 5686 5684 5682 5680 5679 5677 5676 5675 5675 5674 5674 5673 5673 5672 5671 5670 5669 5668 5667 5666 5665 5664 5663 5662 5662 5662 5661 5661 5660 5659 5658 5658 5658
5711 5708 5705 5703 5701 5699 5696 5694 5691 5689 5687 5685 5683 5681 5678 5676 5675 5673 5672 5671 5670 5670 5669 5668 5667 5666 5665 5664 5662 5661 5660 5658 5656 5655 5654 5653 5652 5651 5650 5649 5648 5647 5647 5647
5708 5706 5704 5702 5700 5697 5695 5692 5690 5688 5686 5684 5682 5680 5678 5676 5674 5672 5670 5668 5667 5666 5665 5663 5662 5661 5659 5658 5656 5655 5653 5651 5649 5647 5645 5643 5642 5640 5638 5637 5636 5635 5634 5634
5704 5702 5701 5699 5697 5695 5692 5690 5688 5686 5683 5682 5680 5678 5676 5675 5672 5670 5668 5666 5664 5662 5660 5659 5657 5656 5654 5652 5650 5648 5646 5643 5641 5639 5637 5634 5632 5630 5628 5626 5624 5622 5621 5620
5698 5697 5696 5694 5693 5691 5689 5687 5684 5682 5680 5678 5677 5675 5673 5671 5669 5667 5665 5663 5661 5659 5657 5655 5653 5651 5648 5646 5644 5641 5639 5636 5633 5630 5628 5625 5622 5620 5617 5615 5612 5610 5608 5607
5692 5691 5690 5688 5687 5686 5684 5682 5680 5678 5676 5674 5672 5671 5669 5668 5665 5663 5661 5659 5657 5654 5652 5650 5648 5646 5643 5640 5637 5634 5631 5628 5625 5622 5619 5615 5612 5610 5607 5604 5601 5598 5596 5593
5684 5684 5683 5682 5680 5679 5677 5676 5674 5672 5670 5669 5668 5667 5665 5663 5661 5659 5656 5654 5652 5649 5647 5645 5642 5639 5636 5633 5630 5627 5624 5620 5617 5614 5610 5607 5603 5599 5596 5592 5588 5585 5582 5579
5675 5675 5675 5674 5673 5672 5671 5669 5668 5666 5664 5663 5662 5661 5659 5658 5655 5653 5651 5649 5646 5644 5641 5638 5635 5632 5629 5626 5623 5620 5616 5613 5610 5606 5602 5598 5594 5589 5585 5581 5577 5572 5568 5564
5665 5666 5666 5665 5665 5664 5663 5662 5661 5659 5658 5656 5655 5654 5652 5651 5649 5647 5645 5642 5640 5637 5634 5631 5629 5626 5623 5620 5616 5613 5609 5606 5602 5597 5593 5589 5584 5580 5575 5570 5565 5559 5554 5550
5655 5656 5656 5657 5656 5656 5655 5655 5654 5652 5651 5650 5648 5647 5645 5644 5643 5641 5639 5636 5633 5630 5627 5625 5622 5619 5616 5613 5609 5606 5602 5598 5593 5589 5584 5579 5574 5569 5564 5558 5552 5546 5541 5535
5646 5646 5647 5648 5648 5648 5648 5647 5646 5646 5645 5644 5642 5640 5639 5637 5636 5634 5632 5629 5626 5624 5621 5618 5616 5613 5610 5606 5602 5599 5594 5590 5585 5580 5575 5569 5563 5558 5552 5546 5540 5534 5528 5523
5637 5637 5638 5639 5640 5640 5640 5639 5639 5639 5638 5637 5636 5634 5632 5630 5629 5627 5625 5623 5620 5617 5614 5612 5609 5606 5603 5600 5596 5592 5587 5582 5577 5571 5566 5559 5553 5547 5541 5535 5529 5523 5518 5513
5628 5628 5628 5629 5630 5631 5631 5631 5631 5631 5630 5630 5628 5627 5625 5623 5622 5620 5618 5616 5614 5611 5609 5606 5603 5600 5597 5593 5589 5584 5579 5574 5569 5563 5556 5550 5543 5537 5531 5525 5519 5514 5510 5505
5617 5618 5618 5619 5621 5622 5622 5623 5623 5623 5622 5622 5620 5619 5618 5616 5615 5613 5611 5609 5607 5605 5603 5600 5597 5594 5590 5586 5582 5577 5572 5567 5561 5554 5548 5541 5535 5528 5522 5517 5512 5507 5502 5498
5605 5606 5607 5608 5610 5611 5612 5613 5614 5614 5614 5614 5613 5612 5610 5609 5608 5606 5605 5603 5601 5598 5596 5593 5590 5587 5583 5579 5575 5570 5565 5559 5553 5547 5540 5533 5527 5520 5515 5510 5505 5500 5496 5492